| time (UTC) | temp C | wind direction | speed KPH | gust KPH | rain 1hr cm | rain 24hr cm | rain mn cm | humidity % | barometer mb |
| 20260507170020 | 18 | 186 | 0.0 | 6.4 | 0.00 | 0.00 | 0.00 | 72 | 1019.8 |
| 20260507164517 | 18 | 229 | 0.0 | 6.4 | 0.00 | 0.00 | 0.00 | 73 | 1019.8 |
| 20260507163013 | 17 | 146 | 1.6 | 6.4 | 0.00 | 0.00 | 0.00 | 74 | 1019.7 |
| 20260507161518 | 16 | 200 | 1.6 | 6.4 | 0.00 | 0.00 | 0.00 | 76 | 1019.8 |
| 20260507160006 | 16 | 99 | 1.6 | 11.3 | 0.00 | 0.00 | 0.00 | 78 | 1019.7 |
| 20260507154503 | 16 | 207 | 3.2 | 8.0 | 0.00 | 0.00 | 0.00 | 79 | 1019.8 |
| 20260507153002 | 15 | 148 | 3.2 | 9.7 | 0.00 | 0.00 | 0.00 | 80 | 1019.9 |
| 20260507151559 | 15 | 155 | 0.0 | 8.0 | 0.00 | 0.00 | 0.00 | 82 | 1019.8 |
| 20260507150100 | 14 | 147 | 3.2 | 11.3 | 0.00 | 0.00 | 0.00 | 84 | 1019.8 |
| 20260507144616 | 13 | 169 | 1.6 | 8.0 | 0.00 | 0.00 | 0.00 | 85 | 1019.8 |
| 20260507143056 | 13 | 178 | 0.0 | 9.7 | 0.00 | 0.00 | 0.00 | 86 | 1019.7 |
| 20260507141612 | 13 | 229 | 4.8 | 11.3 | 0.00 | 0.00 | 0.00 | 87 | 1019.5 |
| 20260507140049 | 13 | 165 | 1.6 | 8.0 | 0.00 | 0.00 | 0.00 | 88 | 1019.4 |
| 20260507134549 | 13 | 123 | 3.2 | 12.9 | 0.00 | 0.00 | 0.00 | 88 | 1019.2 |
| 20260507133044 | 13 | 200 | 3.2 | 8.0 | 0.00 | 0.00 | 0.00 | 88 | 1019.0 |
| 20260507131544 | 12 | 178 | 1.6 | 8.0 | 0.00 | 0.00 | 0.00 | 88 | 1019.1 |
| 20260507130040 | 12 | 165 | 3.2 | 11.3 | 0.00 | 0.00 | 0.00 | 88 | 1018.9 |
| 20260507124538 | 13 | 130 | 4.8 | 12.9 | 0.00 | 0.00 | 0.00 | 88 | 1018.8 |
| 20260507123037 | 13 | 126 | 3.2 | 11.3 | 0.00 | 0.00 | 0.00 | 87 | 1018.7 |
| 20260507121535 | 13 | 160 | 3.2 | 11.3 | 0.00 | 0.00 | 0.00 | 87 | 1018.8 |
| 20260507120034 | 13 | 122 | 4.8 | 11.3 | 0.00 | 0.00 | 0.00 | 87 | 1018.7 |
| 20260507114535 | 13 | 132 | 0.0 | 9.7 | 0.00 | 0.00 | 0.00 | 86 | 1018.7 |
| 20260507113034 | 13 | 164 | 0.0 | 11.3 | 0.00 | 0.00 | 0.00 | 86 | 1018.7 |
| 20260507111540 | 13 | 149 | 0.0 | 6.4 | 0.00 | 0.00 | 0.00 | 85 | 1018.7 |
| 20260507110028 | 13 | 173 | 1.6 | 11.3 | 0.00 | 0.00 | 0.00 | 85 | 1018.7 |
| 20260507104526 | 13 | 157 | 3.2 | 9.7 | 0.00 | 0.00 | 0.00 | 84 | 1018.6 |
| 20260507103024 | 13 | 134 | 0.0 | 8.0 | 0.00 | 0.00 | 0.00 | 83 | 1018.6 |
| 20260507101522 | 14 | 167 | 3.2 | 9.7 | 0.00 | 0.00 | 0.00 | 82 | 1018.6 |
| 20260507100020 | 14 | 142 | 0.0 | 8.0 | 0.00 | 0.00 | 0.00 | 82 | 1018.5 |
| 20260507094522 | 14 | 147 | 3.2 | 9.7 | 0.00 | 0.00 | 0.00 | 82 | 1018.5 |
| 20260507093021 | 14 | 108 | 1.6 | 8.0 | 0.00 | 0.00 | 0.00 | 81 | 1018.6 |
| 20260507091525 | 14 | 138 | 6.4 | 14.5 | 0.00 | 0.00 | 0.00 | 81 | 1018.7 |
| 20260507090115 | 14 | 140 | 1.6 | 16.1 | 0.00 | 0.00 | 0.00 | 80 | 1018.7 |
| 20260507084522 | 15 | 159 | 4.8 | 11.3 | 0.00 | 0.00 | 0.00 | 80 | 1018.7 |
| 20260507083012 | 15 | 107 | 4.8 | 11.3 | 0.00 | 0.00 | 0.00 | 80 | 1018.7 |
| 20260507081519 | 15 | 153 | 3.2 | 11.3 | 0.00 | 0.00 | 0.00 | 79 | 1018.6 |
| 20260507080008 | 15 | 102 | 1.6 | 11.3 | 0.00 | 0.00 | 0.00 | 79 | 1018.7 |
| 20260507074506 | 15 | 149 | 3.2 | 8.0 | 0.00 | 0.00 | 0.00 | 78 | 1018.6 |
| 20260507073008 | 15 | 138 | 0.0 | 6.4 | 0.00 | 0.00 | 0.00 | 78 | 1018.7 |
| 20260507071604 | 15 | 156 | 0.0 | 11.3 | 0.00 | 0.00 | 0.00 | 78 | 1018.7 |
| 20260507070002 | 16 | 153 | 0.0 | 9.7 | 0.00 | 0.00 | 0.00 | 77 | 1018.6 |
| 20260507064503 | 16 | 156 | 3.2 | 8.0 | 0.00 | 0.00 | 0.00 | 76 | 1018.6 |
| 20260507063000 | 16 | 157 | 3.2 | 9.7 | 0.00 | 0.00 | 0.00 | 76 | 1018.5 |
| 20260507061604 | 16 | 161 | 0.0 | 9.7 | 0.00 | 0.00 | 0.00 | 75 | 1018.5 |
| 20260507060104 | 17 | 144 | 1.6 | 8.0 | 0.00 | 0.00 | 0.00 | 74 | 1018.3 |
| 20260507054607 | 17 | 142 | 3.2 | 8.0 | 0.00 | 0.00 | 0.00 | 73 | 1018.4 |
| 20260507053105 | 17 | 227 | 4.8 | 11.3 | 0.00 | 0.00 | 0.00 | 72 | 1018.4 |
| 20260507051558 | 18 | 182 | 0.0 | 6.4 | 0.00 | 0.00 | 0.00 | 71 | 1018.4 |
| 20260507050057 | 18 | 134 | 1.6 | 11.3 | 0.00 | 0.00 | 0.00 | 71 | 1018.2 |
| 20260507044603 | 19 | 184 | 0.0 | 6.4 | 0.00 | 0.00 | 0.00 | 70 | 1018.2 |
| 20260507043101 | 19 | 197 | 1.6 | 6.4 | 0.00 | 0.00 | 0.00 | 69 | 1018.1 |
| 20260507041554 | 20 | 160 | 0.0 | 9.7 | 0.00 | 0.00 | 0.00 | 68 | 1018.1 |
| 20260507040055 | 20 | 225 | 0.0 | 12.9 | 0.00 | 0.00 | 0.00 | 68 | 1017.9 |
| 20260507034605 | 21 | 148 | 1.6 | 9.7 | 0.00 | 0.00 | 0.00 | 67 | 1017.8 |
| 20260507033055 | 21 | 194 | 1.6 | 11.3 | 0.00 | 0.00 | 0.00 | 65 | 1017.6 |
| 20260507031552 | 22 | 205 | 0.0 | 0.0 | 0.00 | 0.00 | 0.00 | 61 | 1017.5 |
| 20260507030100 | 22 | 15 | 0.0 | 0.0 | 0.00 | 0.00 | 0.00 | 60 | 1017.3 |
| 20260507024556 | 22 | 11 | 1.6 | 6.4 | 0.00 | 0.00 | 0.00 | 59 | 1017.4 |
| 20260507023050 | 23 | 11 | 0.0 | 3.2 | 0.00 | 0.00 | 0.00 | 57 | 1017.4 |
| 20260507021550 | 23 | 84 | 1.6 | 6.4 | 0.00 | 0.00 | 0.00 | 56 | 1017.3 |
| 20260507020051 | 24 | 27 | 3.2 | 6.4 | 0.00 | 0.00 | 0.00 | 54 | 1017.3 |
| 20260507014550 | 25 | 17 | 1.6 | 8.0 | 0.00 | 0.00 | 0.00 | 53 | 1017.4 |
| 20260507013057 | 25 | 22 | 3.2 | 8.0 | 0.00 | 0.00 | 0.00 | 51 | 1017.5 |
| 20260507011547 | 25 | 43 | 3.2 | 8.0 | 0.00 | 0.00 | 0.00 | 51 | 1017.4 |
| 20260507010046 | 25 | 85 | 0.0 | 9.7 | 0.00 | 0.00 | 0.00 | 51 | 1017.4 |
| 20260507004547 | 25 | 70 | 1.6 | 9.7 | 0.00 | 0.00 | 0.00 | 53 | 1017.4 |
| 20260507003046 | 25 | 288 | 0.0 | 6.4 | 0.00 | 0.00 | 0.00 | 51 | 1017.6 |
| 20260507001544 | 26 | 101 | 1.6 | 9.7 | 0.00 | 0.00 | 0.00 | 49 | 1017.5 |
| 20260507000046 | 26 | 36 | 0.0 | 4.8 | 0.00 | 0.00 | 0.00 | 50 | 1017.8 |
| 20260506234540 | 25 | 81 | 0.0 | 4.8 | 0.00 | 0.00 | 0.00 | 51 | 1017.8 |
| 20260506233037 | 25 | 242 | 1.6 | 6.4 | 0.00 | 0.00 | 0.00 | 52 | 1017.9 |
| 20260506231534 | 25 | 346 | 0.0 | 4.8 | 0.00 | 0.00 | 0.00 | 51 | 1018.1 |
| 20260506230032 | 24 | 55 | 3.2 | 8.0 | 0.00 | 0.00 | 0.00 | 53 | 1018.4 |
| 20260506224528 | 25 | 34 | 1.6 | 12.9 | 0.00 | 0.00 | 0.00 | 52 | 1018.7 |
| 20260506223027 | 25 | 258 | 0.0 | 6.4 | 0.00 | 0.00 | 0.00 | 52 | 1019.0 |
| 20260506221525 | 24 | 344 | 0.0 | 4.8 | 0.00 | 0.00 | 0.00 | 54 | 1019.1 |
| 20260506220025 | 24 | 342 | 0.0 | 4.8 | 0.00 | 0.00 | 0.00 | 55 | 1019.3 |
| 20260506214524 | 23 | 16 | 1.6 | 12.9 | 0.00 | 0.00 | 0.00 | 55 | 1019.5 |
| 20260506213023 | 24 | 349 | 1.6 | 4.8 | 0.00 | 0.00 | 0.00 | 54 | 1019.7 |
| 20260506211519 | 23 | 344 | 1.6 | 8.0 | 0.00 | 0.00 | 0.00 | 56 | 1019.9 |
| 20260506210023 | 22 | 341 | 0.0 | 6.4 | 0.00 | 0.00 | 0.00 | 55 | 1020.1 |
| 20260506204518 | 22 | 88 | 0.0 | 8.0 | 0.00 | 0.00 | 0.00 | 54 | 1020.2 |
| 20260506203020 | 23 | 74 | 3.2 | 8.0 | 0.00 | 0.00 | 0.00 | 51 | 1020.3 |
| 20260506201515 | 23 | 15 | 0.0 | 1.6 | 0.00 | 0.00 | 0.00 | 53 | 1020.4 |
| 20260506200012 | 22 | 59 | 1.6 | 12.9 | 0.00 | 0.00 | 0.00 | 52 | 1020.6 |
| 20260506194510 | 22 | 48 | 0.0 | 3.2 | 0.00 | 0.00 | 0.00 | 56 | 1020.8 |
| 20260506193009 | 22 | 236 | 0.0 | 8.0 | 0.00 | 0.00 | 0.00 | 59 | 1020.9 |
| 20260506191509 | 22 | 72 | 1.6 | 9.7 | 0.00 | 0.00 | 0.00 | 56 | 1021.2 |
| 20260506190007 | 21 | 69 | 0.0 | 3.2 | 0.00 | 0.00 | 0.00 | 58 | 1021.4 |
| 20260506184508 | 21 | 311 | 0.0 | 4.8 | 0.00 | 0.00 | 0.00 | 58 | 1021.4 |
| 20260506183001 | 21 | 261 | 1.6 | 6.4 | 0.00 | 0.00 | 0.00 | 60 | 1021.4 |
| 20260506181600 | 20 | 262 | 0.0 | 4.8 | 0.00 | 0.00 | 0.00 | 62 | 1021.5 |
| 20260506180056 | 20 | 163 | 0.0 | 3.2 | 0.00 | 0.00 | 0.00 | 64 | 1021.5 |
| 20260506174551 | 19 | 181 | 0.0 | 3.2 | 0.00 | 0.00 | 0.00 | 66 | 1021.5 |
| 20260506173049 | 18 | 147 | 0.0 | 3.2 | 0.00 | 0.00 | 0.00 | 65 | 1021.5 |
| 20260506171555 | 18 | 205 | 0.0 | 0.0 | 0.00 | 0.00 | 0.00 | 68 | 1021.5 |